Simultaneous Nadir Overpasses (SNOs) Predictions

Prediction of SNOs between NPP and TERRA Satellite Orbit:

Table of predicted SNOs for the next 14.0 days since TLE Epoch: 7/13/2014
Index Date (NPP) Time (NPP) Lat,Lon (NPP) SZA (NPP ) Date (TERRA) Time (TERRA) Lat,Lon (TERRA) SZA (TERRA ) Distance(km) Time Diff (sec)
1 07/13/2014 14:16:02 -68.98, 145.40 132.90 07/13/2014 14:16:41 -68.99, 145.35 132.89 2.41 39
2 07/13/2014 15:06:46 68.85, -47.12 46.98 07/13/2014 15:06:08 68.87, -47.15 47.00 2.81 38
3 07/16/2014 05:42:23 69.23, 93.50 47.77 07/16/2014 05:43:34 69.19, 93.87 47.72 15.52 71
4 07/16/2014 06:33:01 -68.98, -98.83 132.48 07/16/2014 06:33:05 -68.97, -98.77 132.49 2.38 4
5 07/16/2014 07:23:44 68.80, 68.72 47.35 07/16/2014 07:22:33 68.79, 68.65 47.34 2.78 71
6 07/18/2014 21:59:18 69.02,-150.45 48.02 07/18/2014 22:00:00 69.03,-150.43 48.02 0.52 42
7 07/18/2014 22:50:00 -68.93, 17.00 132.07 07/18/2014 22:49:30 -68.93, 17.07 132.08 2.67 30
8 07/21/2014 13:25:41 -69.52, 157.30 130.97 07/21/2014 13:26:52 -69.41, 158.33 131.11 41.77 71
9 07/21/2014 14:16:17 68.98, -34.62 48.48 07/21/2014 14:16:25 68.95, -34.63 48.45 3.58 8
10 07/21/2014 15:06:58 -68.83, 132.90 131.67 07/21/2014 15:05:55 -68.86, 132.88 131.64 2.58 63
11 07/24/2014 05:42:32 -69.06, -86.27 130.90 07/24/2014 05:43:22 -69.04, -86.25 130.93 2.61 50
12 07/24/2014 06:33:15 68.90, 81.27 48.94 07/24/2014 06:32:49 68.91, 81.22 48.95 2.26 26
13 07/24/2014 07:23:41 -67.94,-110.16
